Location: Buttermere
(51.3333°N, 1.5167°W)
Time: 13:20:38
(UTC+00:00)

Cosmos 1707 - Pass Details

Date: 18 September 2020
Orbit: 515 x 531 km, 82.5° (Epoch: 21 October)

Event Time Altitude Azimuth Distance (km) Brightness Sun altitude
Rises 19:14:11 0° 351° (N) 2,656 6.7 -10.3°
Reaches altitude 10° 19:16:21 10° 353° (N) 1,761 5.7 -10.6°
Maximum altitude 19:20:12 70° 78° (ENE) 554 2.6 -11.2°
Drops below altitude 10° 19:24:01 10° 163° (SSE) 1,741 5.0 -11.8°
Enters shadow 19:25:33 - 165° (SSE) 2,377 5.7 -12.0°
